Weather History for Shannon, Ireland

Change the Weather History Date:

Friday, January 27, 2012

  Actual Average Record
Temperature  
Mean Temperature 41 °F -  
Max Temperature 47 °F 47 °F 57 °F (2002)
Min Temperature 35 °F 37 °F 28 °F (2000)
Degree Days  
Heating Degree Days 24    
Moisture  
Dew Point 37 °F    
Average Humidity 84    
Maximum Humidity 93    
Minimum Humidity 66    
Precipitation  
Precipitation 0.03 in 0.10 in - ()
Sea Level Pressure  
Sea Level Pressure 30.17 in    
Wind  
Wind Speed 8 mph ()    
Max Wind Speed 17 mph    
Max Gust Speed 28 mph    
Visibility 7.1 miles    
Events Rain    
Averages and records for this station are not official NWS values.
T = Trace of Precipitation, MM = Missing Value Source: Averaged Metar Reports

Daily Weather History Graph

Daily Weather History Graph

Search for Another Location

Airport:

Trip Planner

Search our weather history database for the weather conditions in past years. The results will help you decide how hot, cold, wet, or windy it might be!

Date:

Astronomy

Jan. 27, 2012 Rise Set
Actual Time 8:26 AM GMT 5:10 PM GMT
Civil Twilight 7:48 AM GMT 5:48 PM GMT
Nautical Twilight 7:06 AM GMT 6:30 PM GMT
Astronomical Twilight 6:26 AM GMT 7:11 PM GMT
Moon 9:32 AM GMT (1/27) 10:36 PM GMT (1/27)
Length of Visible Light 10h 00m
Length of Day
8h 44m
Waxing Crescent, 18% of the Moon is Illuminated
Jan 27
Waxing Crescent
Jan 31
First Quarter
Feb 7
Full
Feb 14
Last Quarter
Feb 21
New

Hourly Weather History & Observations

Time (GMT) Temp. Windchill Dew Point Humidity Pressure Visibility Wind Dir Wind Speed Gust Speed Precip Events Conditions
12:00 AM 42 °F - 38 °F 82% 29.98 in 12 mi West 11.2 mph - - Rain Light Rain Showers
12:00 AM 42.8 °F 37.0 °F 39.2 °F 87% 29.98 in 6.2 mi West 10.4 mph - N/A   Scattered Clouds
12:30 AM 41.0 °F 34.3 °F 37.4 °F 87% 29.98 in 6.2 mi WNW 11.5 mph - N/A   Scattered Clouds
1:00 AM 41.0 °F 37.1 °F 37.4 °F 87% 30.01 in 6.2 mi SW 5.8 mph - N/A   Scattered Clouds
1:30 AM 41.0 °F 36.4 °F 37.4 °F 87% 30.01 in 6.2 mi WSW 6.9 mph - N/A   Scattered Clouds
2:00 AM 41.0 °F 39.0 °F 37.4 °F 87% 30.01 in 6.2 mi West 3.5 mph - N/A   Scattered Clouds
2:30 AM 39.2 °F 33.0 °F 37.4 °F 93% 30.04 in 6.2 mi WSW 9.2 mph - N/A   Scattered Clouds
3:00 AM 41.0 °F 37.1 °F 37.4 °F 87% 30.04 in 6.2 mi West 5.8 mph - N/A Rain Light Rain Showers
3:30 AM 39.2 °F 33.6 °F 37.4 °F 93% 30.06 in 6.2 mi WSW 8.1 mph - N/A   Mostly Cloudy
4:00 AM 39.2 °F 35.0 °F 37.4 °F 93% 30.06 in 6.2 mi West 5.8 mph - N/A   Mostly Cloudy
4:30 AM 39.2 °F 35.9 °F 37.4 °F 93% 30.06 in 6.2 mi West 4.6 mph - N/A   Mostly Cloudy
5:00 AM 39.2 °F 33.6 °F 37.4 °F 93% 30.09 in 6.2 mi WSW 8.1 mph - N/A Rain Light Rain Showers
5:30 AM 39.2 °F 34.2 °F 37.4 °F 93% 30.09 in 6.2 mi WSW 6.9 mph - N/A   Scattered Clouds
6:00 AM 41 °F - 38 °F 85% 30.11 in 12 mi WNW 13.4 mph - - Rain Light Rain Showers
6:00 AM 41.0 °F 33.5 °F 37.4 °F 87% 30.09 in 6.2 mi WNW 13.8 mph - N/A   Scattered Clouds
6:30 AM 41.0 °F 34.7 °F 37.4 °F 87% 30.09 in 6.2 mi West 10.4 mph - N/A Rain Light Rain Showers
7:00 AM 39.2 °F 34.2 °F 37.4 °F 93% 30.09 in 6.2 mi WSW 6.9 mph - N/A   Mostly Cloudy
7:30 AM 41.0 °F 34.7 °F 37.4 °F 87% 30.12 in 6.2 mi West 10.4 mph - N/A   Scattered Clouds
8:00 AM 39.2 °F 33.0 °F 37.4 °F 93% 30.12 in 6.2 mi West 9.2 mph - N/A   Mostly Cloudy
8:30 AM 41.0 °F 37.1 °F 37.4 °F 87% 30.12 in 6.2 mi West 5.8 mph - N/A   Partly Cloudy
9:00 AM 39.2 °F 35.9 °F 37.4 °F 93% 30.15 in 6.2 mi West 4.6 mph - N/A Rain Light Rain Showers
9:30 AM 42.8 °F 35.1 °F 37.4 °F 81% 30.15 in 6.2 mi West 16.1 mph 27.6 mph N/A Rain Light Rain Showers
10:00 AM 42.8 °F 36.6 °F 37.4 °F 81% 30.15 in 6.2 mi WNW 11.5 mph - N/A   Partly Cloudy
10:30 AM 42.8 °F 38.0 °F 37.4 °F 81% 30.18 in 6.2 mi West 8.1 mph - N/A Rain Light Rain Showers
11:00 AM 41.0 °F 35.8 °F 37.4 °F 87% 30.18 in 6.2 mi NW 8.1 mph - N/A   Partly Cloudy
11:30 AM 42.8 °F - 39.2 °F 87% 30.18 in 6.2 mi Calm Calm - N/A   Scattered Clouds
12:00 PM 44 °F - 40 °F 80% 30.19 in 19 mi WNW 11.2 mph - -   Partly Cloudy
12:00 PM 44.6 °F 39.2 °F 39.2 °F 81% 30.18 in 6.2 mi West 10.4 mph - N/A   Partly Cloudy
12:30 PM 46.4 °F 40.1 °F 39.2 °F 76% 30.18 in 6.2 mi WNW 15.0 mph - N/A   Scattered Clouds
1:00 PM 46.4 °F 39.5 °F 37.4 °F 71% 30.18 in 6.2 mi WNW 17.3 mph - N/A   Mostly Cloudy
1:30 PM 44.6 °F 38.1 °F 37.4 °F 76% 30.18 in 6.2 mi WNW 13.8 mph - N/A   Scattered Clouds
2:00 PM 44.6 °F 38.4 °F 37.4 °F 76% 30.18 in 6.2 mi WNW 12.7 mph - N/A   Scattered Clouds
2:30 PM 46.4 °F 40.7 °F 39.2 °F 76% 30.21 in 6.2 mi WNW 12.7 mph - N/A   Partly Cloudy
3:00 PM 46.4 °F 39.5 °F 35.6 °F 66% 30.21 in 6.2 mi WNW 17.3 mph - N/A   Partly Cloudy
3:30 PM 44.6 °F 38.4 °F 37.4 °F 76% 30.21 in 6.2 mi WNW 12.7 mph - N/A   Scattered Clouds
4:00 PM 44.6 °F 38.4 °F 37.4 °F 76% 30.24 in 6.2 mi West 12.7 mph - N/A   Scattered Clouds
4:30 PM 42.8 °F 37.0 °F 37.4 °F 81% 30.24 in 6.2 mi West 10.4 mph - N/A   Partly Cloudy
5:00 PM 42.8 °F 36.2 °F 37.4 °F 81% 30.24 in 6.2 mi West 12.7 mph - N/A   Partly Cloudy
5:30 PM 42.8 °F 38.0 °F 37.4 °F 81% 30.27 in - West 8.1 mph - N/A   Clear
6:00 PM 42 °F - 36 °F 73% 30.29 in 19 mi WNW 8.9 mph - -   Scattered Clouds
6:00 PM 41.0 °F 35.8 °F 35.6 °F 81% 30.27 in 6.2 mi WNW 8.1 mph - N/A   Partly Cloudy
6:30 PM 42.8 °F 38.0 °F 35.6 °F 76% 30.27 in 6.2 mi West 8.1 mph - N/A   Partly Cloudy
7:00 PM 41.0 °F 35.8 °F 35.6 °F 81% 30.30 in 6.2 mi West 8.1 mph - N/A   Unknown
7:30 PM 41.0 °F 35.8 °F 35.6 °F 81% 30.30 in - West 8.1 mph - N/A   Clear
8:00 PM 39.2 °F 35.0 °F 35.6 °F 87% 30.30 in - NW 5.8 mph - N/A   Clear
8:30 PM 39.2 °F - 35.6 °F 87% 30.33 in - Calm Calm - N/A   Clear
9:00 PM 39.2 °F 35.9 °F 33.8 °F 81% 30.33 in - WNW 4.6 mph - N/A   Clear
9:30 PM 35.6 °F 32.8 °F 32.0 °F 87% 30.33 in - NW 3.5 mph - N/A   Clear
10:00 PM 35.6 °F - 33.8 °F 93% 30.36 in - Calm Calm - N/A   Clear
10:30 PM 37.4 °F 32.8 °F 35.6 °F 93% 30.36 in - West 5.8 mph - N/A   Clear
11:00 PM 39.2 °F 35.0 °F 35.6 °F 87% 30.36 in - West 5.8 mph - N/A   Clear
11:30 PM 35.6 °F - 32.0 °F 87% 30.39 in - ENE 1.2 mph - N/A   Clear